Time,TemperatureF,DewpointF,PressureIn,WindDirection,WindDirectionDegrees,WindSpeedMPH,WindSpeedGustMPH,Humidity,HourlyPrecipIn,Conditions,Clouds,dailyrainin,SoftwareType,DateUTC
2013-01-22 00:00:00,58.9,54.1,30.09,NW,326,0.0,0.0,84,0.00,,---,0.00,VWS V14.00,2013-01-22 05:00:00,
2013-01-22 00:01:00,59.3,54.8,30.08,NNW,327,0.0,0.0,85,0.00,,---,0.00,VWS V14.00,2013-01-22 05:01:00,
2013-01-22 00:03:00,59.2,54.7,30.08,NW,326,0.0,0.0,85,0.00,,---,0.00,VWS V14.00,2013-01-22 05:03:00,
2013-01-22 00:06:00,59.1,54.3,30.08,NNW,327,0.0,0.0,84,0.00,,---,0.00,VWS V14.00,2013-01-22 05:06:00,
2013-01-22 00:11:00,59.1,54.3,30.08,NNW,327,0.0,0.0,84,0.00,,---,0.00,VWS V14.00,2013-01-22 05:11:00,
2013-01-22 00:16:00,59.2,54.4,30.09,NW,326,0.0,1.0,84,0.00,,---,0.00,VWS V14.00,2013-01-22 05:16:00,
2013-01-22 00:21:00,59.3,54.5,30.08,NW,326,0.0,1.0,84,0.00,,---,0.00,VWS V14.00,2013-01-22 05:21:00,
2013-01-22 00:27:00,59.4,54.2,30.09,NW,326,0.0,1.0,83,0.00,,---,0.00,VWS V14.00,2013-01-22 05:27:00,
2013-01-22 00:30:00,58.6,50.7,30.09,North,349,0.0,3.0,75,0.00,,---,0.00,VWS V14.00,2013-01-22 05:30:00,
2013-01-22 00:32:00,59.3,54.2,30.09,NW,326,0.0,0.0,83,0.00,,---,0.00,VWS V14.00,2013-01-22 05:32:00,
2013-01-22 00:37:00,59.2,54.4,30.08,NW,326,0.0,0.0,84,0.00,,---,0.00,VWS V14.00,2013-01-22 05:37:00,
2013-01-22 00:42:00,59.0,54.2,30.09,NNW,327,0.0,0.0,84,0.00,,---,0.00,VWS V14.00,2013-01-22 05:42:00,
2013-01-22 00:47:00,59.0,54.2,30.09,NW,326,0.0,0.0,84,0.00,,---,0.00,VWS V14.00,2013-01-22 05:47:00,
2013-01-22 00:52:00,59.0,54.2,30.09,NNW,327,0.0,0.0,84,0.00,,---,0.00,VWS V14.00,2013-01-22 05:52:00,
2013-01-22 00:57:00,59.0,54.2,30.09,NW,326,0.0,0.0,84,0.00,,---,0.00,VWS V14.00,2013-01-22 05:57:00,
2013-01-22 01:00:00,57.9,49.7,30.09,North,355,0.0,4.0,74,0.00,,---,0.00,VWS V14.00,2013-01-22 06:00:00,
2013-01-22 01:02:00,58.9,54.1,30.09,NNW,327,0.0,0.0,84,0.00,,---,0.00,VWS V14.00,2013-01-22 06:02:00,
2013-01-22 01:07:00,58.6,53.5,30.09,NNW,337,2.0,3.0,83,0.00,,---,0.00,VWS V14.00,2013-01-22 06:07:00,
2013-01-22 01:12:00,58.5,52.0,30.09,ESE,105,0.0,3.0,79,0.00,,---,0.00,VWS V14.00,2013-01-22 06:12:00,
2013-01-22 01:17:00,58.6,51.4,30.09,NNW,341,0.0,3.0,77,0.00,,---,0.00,VWS V14.00,2013-01-22 06:17:00,
2013-01-22 01:22:00,58.6,50.7,30.09,NNW,341,0.0,3.0,75,0.00,,---,0.00,VWS V14.00,2013-01-22 06:22:00,
2013-01-22 01:27:00,58.7,50.8,30.09,North,349,0.0,3.0,75,0.00,,---,0.00,VWS V14.00,2013-01-22 06:27:00,
2013-01-22 01:30:00,57.2,49.0,30.08,North,355,0.0,1.0,74,0.00,,---,0.00,VWS V14.00,2013-01-22 06:30:00,
2013-01-22 01:32:00,58.6,50.3,30.09,North,360,0.0,3.0,74,0.00,,---,0.00,VWS V14.00,2013-01-22 06:32:00,
2013-01-22 01:38:00,58.5,50.2,30.09,North,360,0.0,3.0,74,0.00,,---,0.00,VWS V14.00,2013-01-22 06:38:00,
2013-01-22 01:43:00,58.4,50.2,30.09,North,360,0.0,3.0,74,0.00,,---,0.00,VWS V14.00,2013-01-22 06:43:00,
2013-01-22 01:48:00,58.3,50.1,30.09,North,360,0.0,3.0,74,0.00,,---,0.00,VWS V14.00,2013-01-22 06:48:00,
2013-01-22 01:53:00,58.1,49.9,30.09,North,355,0.0,4.0,74,0.00,,---,0.00,VWS V14.00,2013-01-22 06:53:00,
2013-01-22 01:58:00,58.0,49.8,30.09,North,355,1.0,4.0,74,0.00,,---,0.00,VWS V14.00,2013-01-22 06:58:00,
2013-01-22 02:00:00,56.8,48.2,30.08,NNW,333,0.0,4.0,73,0.00,,---,0.00,VWS V14.00,2013-01-22 07:00:00,
2013-01-22 02:03:00,57.9,49.7,30.09,North,355,0.0,0.0,74,0.00,,---,0.00,VWS V14.00,2013-01-22 07:03:00,
2013-01-22 02:08:00,57.8,49.6,30.09,North,355,0.0,0.0,74,0.00,,---,0.00,VWS V14.00,2013-01-22 07:08:00,
2013-01-22 02:13:00,57.6,49.4,30.10,North,355,0.0,0.0,74,0.00,,---,0.00,VWS V14.00,2013-01-22 07:13:00,
2013-01-22 02:18:00,57.5,48.9,30.10,North,355,0.0,0.0,73,0.00,,---,0.00,VWS V14.00,2013-01-22 07:18:00,
2013-01-22 02:23:00,57.4,49.2,30.09,North,355,0.0,0.0,74,0.00,,---,0.00,VWS V14.00,2013-01-22 07:23:00,
2013-01-22 02:29:00,57.3,49.1,30.09,North,355,0.0,0.0,74,0.00,,---,0.00,VWS V14.00,2013-01-22 07:29:00,
2013-01-22 02:30:00,56.2,47.3,30.08,NNW,344,0.0,3.0,72,0.00,,---,0.00,VWS V14.00,2013-01-22 07:30:00,
2013-01-22 02:34:00,57.2,49.0,30.08,North,355,0.0,0.0,74,0.00,,---,0.00,VWS V14.00,2013-01-22 07:34:00,
2013-01-22 02:39:00,57.1,48.5,30.08,North,355,0.0,1.0,73,0.00,,---,0.00,VWS V14.00,2013-01-22 07:39:00,
2013-01-22 02:44:00,57.0,48.4,30.09,North,355,0.0,1.0,73,0.00,,---,0.00,VWS V14.00,2013-01-22 07:44:00,
2013-01-22 02:49:00,56.9,48.3,30.08,NNW,333,2.0,4.0,73,0.00,,---,0.00,VWS V14.00,2013-01-22 07:49:00,
2013-01-22 02:54:00,56.8,48.2,30.08,NNW,333,0.0,4.0,73,0.00,,---,0.00,VWS V14.00,2013-01-22 07:54:00,
2013-01-22 02:59:00,56.8,48.2,30.08,NNW,333,0.0,4.0,73,0.00,,---,0.00,VWS V14.00,2013-01-22 07:59:00,
2013-01-22 03:00:00,55.8,46.9,30.08,NNW,344,0.0,1.0,72,0.00,,---,0.00,VWS V14.00,2013-01-22 08:00:00,
2013-01-22 03:04:00,56.7,48.2,30.08,NNW,333,0.0,0.0,73,0.00,,---,0.00,VWS V14.00,2013-01-22 08:04:00,
2013-01-22 03:09:00,56.6,47.7,30.08,NNW,333,1.0,2.0,72,0.00,,---,0.00,VWS V14.00,2013-01-22 08:09:00,
2013-01-22 03:14:00,56.5,47.6,30.08,NNW,344,0.0,3.0,72,0.00,,---,0.00,VWS V14.00,2013-01-22 08:14:00,
2013-01-22 03:20:00,56.4,47.5,30.08,NNW,344,0.0,3.0,72,0.00,,---,0.00,VWS V14.00,2013-01-22 08:20:00,
2013-01-22 03:25:00,56.3,47.4,30.08,NNW,344,0.0,3.0,72,0.00,,---,0.00,VWS V14.00,2013-01-22 08:25:00,
2013-01-22 03:30:00,56.2,47.3,30.08,NNW,344,0.0,3.0,72,0.00,,---,0.00,VWS V14.00,2013-01-22 08:30:00,
2013-01-22 03:35:00,56.2,47.3,30.08,NNW,344,0.0,0.0,72,0.00,,---,0.00,VWS V14.00,2013-01-22 08:35:00,
2013-01-22 03:40:00,56.0,47.1,30.08,NNW,344,0.0,0.0,72,0.00,,---,0.00,VWS V14.00,2013-01-22 08:40:00,
2013-01-22 03:45:00,56.0,46.7,30.08,NNW,344,0.0,1.0,71,0.00,,---,0.00,VWS V14.00,2013-01-22 08:45:00,
2013-01-22 03:50:00,55.9,47.0,30.08,NNW,344,0.0,1.0,72,0.00,,---,0.00,VWS V14.00,2013-01-22 08:50:00,
2013-01-22 03:55:00,55.9,47.0,30.08,NNW,344,0.0,1.0,72,0.00,,---,0.00,VWS V14.00,2013-01-22 08:55:00,
2013-01-22 04:00:00,55.8,46.9,30.08,NNW,344,0.0,1.0,72,0.00,,---,0.00,VWS V14.00,2013-01-22 09:00:00,
2013-01-22 04:05:00,55.7,46.5,30.08,NNW,344,0.0,0.0,71,0.00,,---,0.00,VWS V14.00,2013-01-22 09:05:00,
2013-01-22 04:10:00,55.5,46.6,30.08,NNW,344,0.0,0.0,72,0.00,,---,0.00,VWS V14.00,2013-01-22 09:10:00,
2013-01-22 04:15:00,55.4,46.5,30.09,NNW,344,0.0,0.0,72,0.00,,---,0.00,VWS V14.00,2013-01-22 09:15:00,
2013-01-22 04:20:00,55.2,46.3,30.08,NNW,344,0.0,0.0,72,0.00,,---,0.00,VWS V14.00,2013-01-22 09:20:00,
2013-01-22 04:26:00,55.0,46.5,30.08,NNW,344,0.0,0.0,73,0.00,,---,0.00,VWS V14.00,2013-01-22 09:26:00,
2013-01-22 04:30:00,53.9,45.8,30.09,NNW,344,0.0,1.0,74,0.00,,---,0.00,VWS V14.00,2013-01-22 09:30:00,
2013-01-22 04:31:00,54.8,46.3,30.08,NNW,344,0.0,0.0,73,0.00,,---,0.00,VWS V14.00,2013-01-22 09:31:00,
2013-01-22 04:36:00,54.6,46.1,30.08,NNW,344,0.0,0.0,73,0.00,,---,0.00,VWS V14.00,2013-01-22 09:36:00,
2013-01-22 04:41:00,54.4,46.3,30.08,NNW,344,0.0,0.0,74,0.00,,---,0.00,VWS V14.00,2013-01-22 09:41:00,
2013-01-22 04:46:00,54.2,46.1,30.08,NNW,344,0.0,0.0,74,0.00,,---,0.00,VWS V14.00,2013-01-22 09:46:00,
2013-01-22 04:51:00,54.2,46.1,30.09,NNW,344,0.0,0.0,74,0.00,,---,0.00,VWS V14.00,2013-01-22 09:51:00,
2013-01-22 04:56:00,54.1,46.0,30.09,NNW,344,0.0,0.0,74,0.00,,---,0.00,VWS V14.00,2013-01-22 09:56:00,
2013-01-22 05:00:00,53.9,45.8,30.10,NNW,344,0.0,1.0,74,0.00,,---,0.00,VWS V14.00,2013-01-22 10:00:00,
2013-01-22 05:01:00,54.1,46.0,30.09,NNW,344,0.0,0.0,74,0.00,,---,0.00,VWS V14.00,2013-01-22 10:01:00,
2013-01-22 05:06:00,54.1,46.0,30.08,NNW,344,0.0,1.0,74,0.00,,---,0.00,VWS V14.00,2013-01-22 10:06:00,
2013-01-22 05:11:00,54.1,46.0,30.08,NNW,344,0.0,1.0,74,0.00,,---,0.00,VWS V14.00,2013-01-22 10:11:00,
2013-01-22 05:16:00,54.0,45.9,30.09,NNW,344,0.0,1.0,74,0.00,,---,0.00,VWS V14.00,2013-01-22 10:16:00,
2013-01-22 05:21:00,53.9,45.8,30.09,NNW,344,0.0,1.0,74,0.00,,---,0.00,VWS V14.00,2013-01-22 10:21:00,
2013-01-22 05:27:00,53.9,45.8,30.09,NNW,344,0.0,1.0,74,0.00,,---,0.00,VWS V14.00,2013-01-22 10:27:00,
2013-01-22 05:30:00,54.0,45.9,30.12,North,9,1.0,3.0,74,0.00,,---,0.00,VWS V14.00,2013-01-22 10:30:00,
2013-01-22 05:32:00,53.9,45.8,30.10,NNW,344,0.0,0.0,74,0.00,,---,0.00,VWS V14.00,2013-01-22 10:32:00,
2013-01-22 05:37:00,53.9,45.8,30.10,NNW,344,0.0,0.0,74,0.00,,---,0.00,VWS V14.00,2013-01-22 10:37:00,
2013-01-22 05:42:00,53.8,45.7,30.10,NNW,344,0.0,0.0,74,0.00,,---,0.00,VWS V14.00,2013-01-22 10:42:00,
2013-01-22 05:47:00,53.8,46.1,30.10,NNW,344,0.0,0.0,75,0.00,,---,0.00,VWS V14.00,2013-01-22 10:47:00,
2013-01-22 05:52:00,53.8,45.7,30.10,NNW,344,0.0,1.0,74,0.00,,---,0.00,VWS V14.00,2013-01-22 10:52:00,
2013-01-22 05:57:00,53.8,45.7,30.10,NNW,344,0.0,1.0,74,0.00,,---,0.00,VWS V14.00,2013-01-22 10:57:00,
2013-01-22 06:00:00,53.9,45.1,30.14,NNE,13,0.0,4.0,72,0.00,,---,0.00,VWS V14.00,2013-01-22 11:00:00,
2013-01-22 06:02:00,53.9,45.8,30.10,NNW,344,0.0,0.0,74,0.00,,---,0.00,VWS V14.00,2013-01-22 11:02:00,
2013-01-22 06:07:00,54.0,45.9,30.11,NNW,344,0.0,0.0,74,0.00,,---,0.00,VWS V14.00,2013-01-22 11:07:00,
2013-01-22 06:12:00,53.9,45.8,30.11,NNW,344,0.0,0.0,74,0.00,,---,0.00,VWS V14.00,2013-01-22 11:12:00,
2013-01-22 06:18:00,53.9,45.8,30.11,NNW,344,0.0,0.0,74,0.00,,---,0.00,VWS V14.00,2013-01-22 11:18:00,
2013-01-22 06:23:00,54.0,45.9,30.12,NNE,28,0.0,3.0,74,0.00,,---,0.00,VWS V14.00,2013-01-22 11:23:00,
2013-01-22 06:28:00,54.0,45.9,30.12,North,10,0.0,3.0,74,0.00,,---,0.00,VWS V14.00,2013-01-22 11:28:00,
2013-01-22 06:30:00,53.3,44.5,30.16,ENE,57,0.0,2.0,72,0.00,,---,0.00,VWS V14.00,2013-01-22 11:30:00,
2013-01-22 06:33:00,54.0,45.5,30.12,North,360,0.0,1.0,73,0.00,,---,0.00,VWS V14.00,2013-01-22 11:33:00,
2013-01-22 06:38:00,54.0,45.2,30.13,North,350,0.0,4.0,72,0.00,,---,0.00,VWS V14.00,2013-01-22 11:38:00,
2013-01-22 06:44:00,54.1,45.7,30.13,WNW,290,0.0,4.0,73,0.00,,---,0.00,VWS V14.00,2013-01-22 11:44:00,
2013-01-22 06:49:00,54.0,45.2,30.13,NE,56,0.0,4.0,72,0.00,,---,0.00,VWS V14.00,2013-01-22 11:49:00,
2013-01-22 06:54:00,54.0,45.2,30.14,NNE,13,1.0,4.0,72,0.00,,---,0.00,VWS V14.00,2013-01-22 11:54:00,
2013-01-22 06:59:00,53.9,45.1,30.14,NNE,13,0.0,4.0,72,0.00,,---,0.00,VWS V14.00,2013-01-22 11:59:00,
2013-01-22 07:00:00,53.0,44.2,30.17,North,9,0.0,4.0,72,0.00,,---,0.00,VWS V14.00,2013-01-22 12:00:00,
2013-01-22 07:04:00,53.8,45.0,30.14,North,360,0.0,1.0,72,0.00,,---,0.00,VWS V14.00,2013-01-22 12:04:00,
2013-01-22 07:10:00,53.7,44.9,30.15,North,11,0.0,1.0,72,0.00,,---,0.00,VWS V14.00,2013-01-22 12:10:00,
2013-01-22 07:15:00,53.6,44.8,30.15,North,11,0.0,1.0,72,0.00,,---,0.00,VWS V14.00,2013-01-22 12:15:00,
2013-01-22 07:20:00,53.5,44.7,30.15,North,355,0.0,2.0,72,0.00,,---,0.00,VWS V14.00,2013-01-22 12:20:00,
2013-01-22 07:25:00,53.3,44.5,30.16,North,355,0.0,2.0,72,0.00,,---,0.00,VWS V14.00,2013-01-22 12:25:00,
2013-01-22 07:30:00,53.3,44.5,30.16,ENE,57,0.0,2.0,72,0.00,,---,0.00,VWS V14.00,2013-01-22 12:30:00,
2013-01-22 07:36:00,53.2,44.4,30.16,North,11,0.0,0.0,72,0.00,,---,0.00,VWS V14.00,2013-01-22 12:36:00,
2013-01-22 07:41:00,53.1,44.3,30.16,NNW,339,3.0,3.0,72,0.00,,---,0.00,VWS V14.00,2013-01-22 12:41:00,
2013-01-22 07:47:00,53.1,44.3,30.17,North,355,0.0,4.0,72,0.00,,---,0.00,VWS V14.00,2013-01-22 12:47:00,
2013-01-22 07:52:00,53.0,44.2,30.17,North,355,0.0,4.0,72,0.00,,---,0.00,VWS V14.00,2013-01-22 12:52:00,
2013-01-22 07:58:00,53.0,44.2,30.17,North,9,0.0,4.0,72,0.00,,---,0.00,VWS V14.00,2013-01-22 12:58:00,
2013-01-22 08:00:00,54.2,45.0,30.21,NW,321,0.0,6.0,71,0.00,,---,0.00,VWS V14.00,2013-01-22 13:00:00,
2013-01-22 08:03:00,53.0,44.2,30.17,NW,325,0.0,1.0,72,0.00,,---,0.00,VWS V14.00,2013-01-22 13:03:00,
2013-01-22 08:08:00,53.1,44.3,30.18,NW,325,0.0,1.0,72,0.00,,---,0.00,VWS V14.00,2013-01-22 13:08:00,
2013-01-22 08:13:00,53.1,44.3,30.18,North,355,0.0,4.0,72,0.00,,---,0.00,VWS V14.00,2013-01-22 13:13:00,
2013-01-22 08:18:00,53.2,44.4,30.18,NNW,348,0.0,4.0,72,0.00,,---,0.00,VWS V14.00,2013-01-22 13:18:00,
2013-01-22 08:23:00,53.2,44.4,30.19,NNW,341,0.0,4.0,72,0.00,,---,0.00,VWS V14.00,2013-01-22 13:23:00,
2013-01-22 08:29:00,53.3,44.5,30.19,North,349,0.0,4.0,72,0.00,,---,0.00,VWS V14.00,2013-01-22 13:29:00,
2013-01-22 08:30:00,55.2,46.0,30.23,South,191,0.0,7.0,71,0.00,,---,0.00,VWS V14.00,2013-01-22 13:30:00,
2013-01-22 08:34:00,53.4,44.2,30.19,NNW,329,5.0,5.0,71,0.00,,---,0.00,VWS V14.00,2013-01-22 13:34:00,
2013-01-22 08:39:00,53.6,44.4,30.20,NNW,336,4.0,6.0,71,0.00,,---,0.00,VWS V14.00,2013-01-22 13:39:00,
2013-01-22 08:44:00,53.8,45.0,30.20,NNW,329,0.0,6.0,72,0.00,,---,0.00,VWS V14.00,2013-01-22 13:44:00,
2013-01-22 08:49:00,54.0,45.2,30.20,NNE,20,1.0,6.0,72,0.00,,---,0.00,VWS V14.00,2013-01-22 13:49:00,
2013-01-22 08:55:00,54.2,45.0,30.21,NNW,342,2.0,6.0,71,0.00,,---,0.00,VWS V14.00,2013-01-22 13:55:00,
2013-01-22 09:00:00,54.2,45.0,30.21,NNW,327,0.0,6.0,71,0.00,,---,0.00,VWS V14.00,2013-01-22 14:00:00,
2013-01-22 09:05:00,54.2,45.0,30.21,NNW,340,0.0,3.0,71,0.00,,---,0.00,VWS V14.00,2013-01-22 14:05:00,
2013-01-22 09:10:00,54.3,45.1,30.21,NW,314,7.0,7.0,71,0.00,,---,0.00,VWS V14.00,2013-01-22 14:10:00,
2013-01-22 09:15:00,54.5,45.3,30.21,North,350,0.0,7.0,71,0.00,,---,0.00,VWS V14.00,2013-01-22 14:15:00,
2013-01-22 09:20:00,54.7,45.5,30.21,NNW,342,0.0,7.0,71,0.00,,---,0.00,VWS V14.00,2013-01-22 14:20:00,
2013-01-22 09:25:00,54.9,45.3,30.22,NE,38,0.0,7.0,70,0.00,,---,0.00,VWS V14.00,2013-01-22 14:25:00,
2013-01-22 09:30:00,55.2,46.0,30.23,South,191,0.0,7.0,71,0.00,,---,0.00,VWS V14.00,2013-01-22 14:30:00,
2013-01-22 09:36:00,55.5,45.9,30.23,NW,322,1.0,5.0,70,0.00,,---,0.00,VWS V14.00,2013-01-22 14:36:00,
2013-01-22 09:41:00,55.8,46.2,30.23,NE,38,0.0,5.0,70,0.00,,---,0.00,VWS V14.00,2013-01-22 14:41:00,
2013-01-22 09:46:00,56.1,46.1,30.23,NNW,333,0.0,5.0,69,0.00,,---,0.00,VWS V14.00,2013-01-22 14:46:00,
2013-01-22 09:52:00,56.3,45.9,30.23,NE,45,0.0,7.0,68,0.00,,---,0.00,VWS V14.00,2013-01-22 14:52:00,
2013-01-22 09:57:00,56.5,45.7,30.24,NNW,344,2.0,7.0,67,0.00,,---,0.00,VWS V14.00,2013-01-22 14:57:00,
2013-01-22 10:00:00,59.7,45.4,30.24,NNW,338,0.0,7.0,59,0.00,,---,0.00,VWS V14.00,2013-01-22 15:00:00,
2013-01-22 10:02:00,56.7,45.9,30.24,North,5,0.0,1.0,67,0.00,,---,0.00,VWS V14.00,2013-01-22 15:02:00,
2013-01-22 10:07:00,56.9,45.3,30.24,NNW,348,0.0,10.0,65,0.00,,---,0.00,VWS V14.00,2013-01-22 15:07:00,
2013-01-22 10:12:00,57.3,45.7,30.24,NNW,348,0.0,10.0,65,0.00,,---,0.00,VWS V14.00,2013-01-22 15:12:00,
2013-01-22 10:17:00,57.7,45.2,30.24,ENE,65,0.0,10.0,63,0.00,,---,0.00,VWS V14.00,2013-01-22 15:17:00,
2013-01-22 10:23:00,57.9,45.0,30.24,East,86,0.0,10.0,62,0.00,,---,0.00,VWS V14.00,2013-01-22 15:23:00,
2013-01-22 10:28:00,58.1,45.6,30.24,North,360,0.0,10.0,63,0.00,,---,0.00,VWS V14.00,2013-01-22 15:28:00,
2013-01-22 10:30:00,60.7,42.5,30.24,North,355,0.0,7.0,51,0.00,,---,0.00,VWS V14.00,2013-01-22 15:30:00,
2013-01-22 10:33:00,58.4,44.6,30.24,North,351,0.0,3.0,60,0.00,,---,0.00,VWS V14.00,2013-01-22 15:33:00,
2013-01-22 10:38:00,58.6,44.8,30.24,NNW,346,2.0,4.0,60,0.00,,---,0.00,VWS V14.00,2013-01-22 15:38:00,
2013-01-22 10:44:00,58.6,45.2,30.24,NW,321,0.0,6.0,61,0.00,,---,0.00,VWS V14.00,2013-01-22 15:44:00,
2013-01-22 10:49:00,59.0,44.7,30.24,NW,311,2.0,7.0,59,0.00,,---,0.00,VWS V14.00,2013-01-22 15:49:00,
2013-01-22 10:54:00,59.0,44.3,30.24,North,355,0.0,7.0,58,0.00,,---,0.00,VWS V14.00,2013-01-22 15:54:00,
2013-01-22 10:59:00,59.5,44.7,30.24,NNW,338,1.0,7.0,58,0.00,,---,0.00,VWS V14.00,2013-01-22 15:59:00,
2013-01-22 11:00:00,61.7,43.9,30.24,East,96,0.0,6.0,52,0.00,,---,0.00,VWS V14.00,2013-01-22 16:00:00,
2013-01-22 11:05:00,60.0,44.3,30.24,North,10,2.0,5.0,56,0.00,,---,0.00,VWS V14.00,2013-01-22 16:05:00,
2013-01-22 11:10:00,60.5,45.2,30.24,North,11,0.0,5.0,57,0.00,,---,0.00,VWS V14.00,2013-01-22 16:10:00,
2013-01-22 11:15:00,60.9,44.6,30.24,North,360,3.0,6.0,55,0.00,,---,0.00,VWS V14.00,2013-01-22 16:15:00,
2013-01-22 11:20:00,61.0,43.8,30.24,NW,320,0.0,7.0,53,0.00,,---,0.00,VWS V14.00,2013-01-22 16:20:00,
2013-01-22 11:25:00,60.9,43.2,30.24,NNW,329,0.0,7.0,52,0.00,,---,0.00,VWS V14.00,2013-01-22 16:25:00,
2013-01-22 11:30:00,60.8,42.6,30.24,North,355,0.0,7.0,51,0.00,,---,0.00,VWS V14.00,2013-01-22 16:30:00,
2013-01-22 11:35:00,60.5,42.8,30.24,ESE,117,0.0,6.0,52,0.00,,---,0.00,VWS V14.00,2013-01-22 16:35:00,
2013-01-22 11:41:00,60.6,43.4,30.24,NNE,20,0.0,6.0,53,0.00,,---,0.00,VWS V14.00,2013-01-22 16:41:00,
2013-01-22 11:46:00,61.0,42.8,30.24,NW,321,0.0,6.0,51,0.00,,---,0.00,VWS V14.00,2013-01-22 16:46:00,
2013-01-22 11:51:00,61.3,44.0,30.24,NW,321,0.0,6.0,53,0.00,,---,0.00,VWS V14.00,2013-01-22 16:51:00,
2013-01-22 11:56:00,61.4,43.1,30.24,NE,40,0.0,6.0,51,0.00,,---,0.00,VWS V14.00,2013-01-22 16:56:00,
2013-01-22 12:00:00,61.8,44.0,30.23,NNE,32,0.0,6.0,52,0.00,,---,0.00,VWS V14.00,2013-01-22 17:00:00,
2013-01-22 12:02:00,61.8,44.0,30.24,East,96,0.0,0.0,52,0.00,,---,0.00,VWS V14.00,2013-01-22 17:02:00,
2013-01-22 12:07:00,62.3,44.5,30.24,NNE,25,0.0,3.0,52,0.00,,---,0.00,VWS V14.00,2013-01-22 17:07:00,
2013-01-22 12:12:00,62.0,43.7,30.24,NNW,336,0.0,10.0,51,0.00,,---,0.00,VWS V14.00,2013-01-22 17:12:00,
2013-01-22 12:17:00,61.6,43.3,30.24,North,5,0.0,10.0,51,0.00,,---,0.00,VWS V14.00,2013-01-22 17:17:00,
2013-01-22 12:22:00,61.6,42.8,30.24,North,350,0.0,10.0,50,0.00,,---,0.00,VWS V14.00,2013-01-22 17:22:00,
2013-01-22 12:27:00,61.4,42.6,30.23,NNW,332,1.0,10.0,50,0.00,,---,0.00,VWS V14.00,2013-01-22 17:27:00,
2013-01-22 12:30:00,62.8,44.4,30.22,NW,326,1.0,6.0,51,0.00,,---,0.00,VWS V14.00,2013-01-22 17:30:00,
2013-01-22 12:33:00,61.3,43.0,30.23,NE,52,1.0,5.0,51,0.00,,---,0.00,VWS V14.00,2013-01-22 17:33:00,
2013-01-22 12:38:00,61.4,43.1,30.23,NNW,344,0.0,5.0,51,0.00,,---,0.00,VWS V14.00,2013-01-22 17:38:00,
2013-01-22 12:44:00,61.7,44.4,30.23,NNW,337,0.0,6.0,53,0.00,,---,0.00,VWS V14.00,2013-01-22 17:44:00,
2013-01-22 12:49:00,61.8,43.5,30.23,North,349,0.0,6.0,51,0.00,,---,0.00,VWS V14.00,2013-01-22 17:49:00,
2013-01-22 12:54:00,61.8,43.5,30.23,NNE,14,0.0,6.0,51,0.00,,---,0.00,VWS V14.00,2013-01-22 17:54:00,
2013-01-22 12:59:00,61.8,44.0,30.22,NNE,19,0.0,6.0,52,0.00,,---,0.00,VWS V14.00,2013-01-22 17:59:00,
2013-01-22 13:00:00,62.6,44.2,30.21,NNW,348,2.0,6.0,51,0.00,,---,0.00,VWS V14.00,2013-01-22 18:00:00,
2013-01-22 13:04:00,62.0,44.2,30.23,NNW,331,0.0,3.0,52,0.00,,---,0.00,VWS V14.00,2013-01-22 18:04:00,
2013-01-22 13:10:00,62.1,44.3,30.22,North,5,0.0,5.0,52,0.00,,---,0.00,VWS V14.00,2013-01-22 18:10:00,
2013-01-22 13:15:00,62.1,44.3,30.22,NNE,21,0.0,6.0,52,0.00,,---,0.00,VWS V14.00,2013-01-22 18:15:00,
2013-01-22 13:20:00,62.3,44.5,30.22,NE,47,0.0,6.0,52,0.00,,---,0.00,VWS V14.00,2013-01-22 18:20:00,
2013-01-22 13:25:00,62.7,44.8,30.22,NW,317,0.0,6.0,52,0.00,,---,0.00,VWS V14.00,2013-01-22 18:25:00,
2013-01-22 13:30:00,62.9,44.5,30.22,NNE,14,0.0,6.0,51,0.00,,---,0.00,VWS V14.00,2013-01-22 18:30:00,
2013-01-22 13:35:00,62.7,44.3,30.22,NNW,338,0.0,4.0,51,0.00,,---,0.00,VWS V14.00,2013-01-22 18:35:00,
2013-01-22 13:40:00,62.3,44.5,30.22,NW,313,1.0,4.0,52,0.00,,---,0.00,VWS V14.00,2013-01-22 18:40:00,
2013-01-22 13:45:00,62.1,44.3,30.21,NNW,329,0.0,6.0,52,0.00,,---,0.00,VWS V14.00,2013-01-22 18:45:00,
2013-01-22 13:51:00,62.3,45.0,30.21,NNW,348,0.0,6.0,53,0.00,,---,0.00,VWS V14.00,2013-01-22 18:51:00,
2013-01-22 13:56:00,62.6,44.8,30.21,NNE,30,0.0,6.0,52,0.00,,---,0.00,VWS V14.00,2013-01-22 18:56:00,
2013-01-22 14:00:00,62.7,44.3,30.20,NNW,336,0.0,7.0,51,0.00,,---,0.00,VWS V14.00,2013-01-22 19:00:00,
2013-01-22 14:01:00,62.6,44.2,30.21,NNW,348,2.0,6.0,51,0.00,,---,0.00,VWS V14.00,2013-01-22 19:01:00,
2013-01-22 14:06:00,62.1,44.3,30.21,NNW,338,0.0,10.0,52,0.00,,---,0.00,VWS V14.00,2013-01-22 19:06:00,
2013-01-22 14:12:00,62.2,44.4,30.20,North,350,3.0,10.0,52,0.00,,---,0.00,VWS V14.00,2013-01-22 19:12:00,
2013-01-22 14:18:00,62.3,44.5,30.20,NE,40,0.0,10.0,52,0.00,,---,0.00,VWS V14.00,2013-01-22 19:18:00,
2013-01-22 14:23:00,62.3,45.0,30.21,North,355,0.0,10.0,53,0.00,,---,0.00,VWS V14.00,2013-01-22 19:23:00,
2013-01-22 14:28:00,62.3,44.5,30.20,North,350,0.0,10.0,52,0.00,,---,0.00,VWS V14.00,2013-01-22 19:28:00,
2013-01-22 14:30:00,62.6,42.7,30.21,NNW,329,0.0,6.0,48,0.00,,---,0.00,VWS V14.00,2013-01-22 19:30:00,
2013-01-22 14:33:00,62.2,43.9,30.20,North,11,4.0,7.0,51,0.00,,---,0.00,VWS V14.00,2013-01-22 19:33:00,
2013-01-22 14:38:00,62.0,44.2,30.20,NNW,329,0.0,7.0,52,0.00,,---,0.00,VWS V14.00,2013-01-22 19:38:00,
2013-01-22 14:44:00,62.2,43.9,30.20,NNW,331,0.0,7.0,51,0.00,,---,0.00,VWS V14.00,2013-01-22 19:44:00,
2013-01-22 14:49:00,62.4,44.6,30.20,North,5,0.0,7.0,52,0.00,,---,0.00,VWS V14.00,2013-01-22 19:49:00,
2013-01-22 14:54:00,62.6,44.2,30.20,NW,311,0.0,7.0,51,0.00,,---,0.00,VWS V14.00,2013-01-22 19:54:00,
2013-01-22 14:59:00,62.6,44.2,30.20,NNW,336,0.0,7.0,51,0.00,,---,0.00,VWS V14.00,2013-01-22 19:59:00,
2013-01-22 15:00:00,61.3,39.8,30.22,NNE,13,0.0,6.0,45,0.00,,---,0.00,VWS V14.00,2013-01-22 20:00:00,
2013-01-22 15:04:00,62.8,43.9,30.20,NNW,336,1.0,2.0,50,0.00,,---,0.00,VWS V14.00,2013-01-22 20:04:00,
2013-01-22 15:10:00,63.0,43.6,30.21,NW,314,4.0,5.0,49,0.00,,---,0.00,VWS V14.00,2013-01-22 20:10:00,
2013-01-22 15:15:00,62.6,42.7,30.21,NNW,342,0.0,5.0,48,0.00,,---,0.00,VWS V14.00,2013-01-22 20:15:00,
2013-01-22 15:20:00,62.5,43.1,30.21,NNW,327,2.0,5.0,49,0.00,,---,0.00,VWS V14.00,2013-01-22 20:20:00,
2013-01-22 15:25:00,62.7,42.8,30.21,NE,55,0.0,5.0,48,0.00,,---,0.00,VWS V14.00,2013-01-22 20:25:00,
2013-01-22 15:30:00,62.6,42.7,30.21,North,349,0.0,6.0,48,0.00,,---,0.00,VWS V14.00,2013-01-22 20:30:00,
2013-01-22 15:35:00,62.6,42.7,30.22,NW,326,0.0,1.0,48,0.00,,---,0.00,VWS V14.00,2013-01-22 20:35:00,
2013-01-22 15:41:00,62.4,42.5,30.22,NNW,336,0.0,5.0,48,0.00,,---,0.00,VWS V14.00,2013-01-22 20:41:00,
2013-01-22 15:47:00,62.1,41.1,30.22,North,360,0.0,5.0,46,0.00,,---,0.00,VWS V14.00,2013-01-22 20:47:00,
2013-01-22 15:52:00,61.6,39.5,30.22,NNW,347,0.0,6.0,44,0.00,,---,0.00,VWS V14.00,2013-01-22 20:52:00,
2013-01-22 15:57:00,61.3,38.6,30.22,NNW,340,0.0,6.0,43,0.00,,---,0.00,VWS V14.00,2013-01-22 20:57:00,
2013-01-22 16:00:00,60.4,39.0,30.24,NNW,342,0.0,3.0,45,0.00,,---,0.00,VWS V14.00,2013-01-22 21:00:00,
2013-01-22 16:02:00,61.3,39.8,30.22,NNE,13,0.0,0.0,45,0.00,,---,0.00,VWS V14.00,2013-01-22 21:02:00,
2013-01-22 16:07:00,61.4,39.9,30.22,NE,38,0.0,0.0,45,0.00,,---,0.00,VWS V14.00,2013-01-22 21:07:00,
2013-01-22 16:13:00,61.4,39.3,30.23,NE,38,0.0,1.0,44,0.00,,---,0.00,VWS V14.00,2013-01-22 21:13:00,
2013-01-22 16:18:00,61.4,39.9,30.23,NE,38,0.0,2.0,45,0.00,,---,0.00,VWS V14.00,2013-01-22 21:18:00,
2013-01-22 16:23:00,61.4,40.5,30.23,NE,47,0.0,2.0,46,0.00,,---,0.00,VWS V14.00,2013-01-22 21:23:00,
2013-01-22 16:28:00,61.3,39.8,30.23,ENE,61,0.0,2.0,45,0.00,,---,0.00,VWS V14.00,2013-01-22 21:28:00,
2013-01-22 16:30:00,59.0,40.4,30.24,NNW,346,0.0,2.0,50,0.00,,---,0.00,VWS V14.00,2013-01-22 21:30:00,
2013-01-22 16:32:00,61.2,39.1,30.23,ENE,61,0.0,0.0,44,0.00,,---,0.00,VWS V14.00,2013-01-22 21:32:00,
2013-01-22 16:38:00,61.0,39.0,30.23,NW,313,0.0,1.0,44,0.00,,---,0.00,VWS V14.00,2013-01-22 21:38:00,
2013-01-22 16:43:00,60.9,38.9,30.23,NW,326,0.0,3.0,44,0.00,,---,0.00,VWS V14.00,2013-01-22 21:43:00,
2013-01-22 16:48:00,60.7,38.7,30.23,NW,323,0.0,3.0,44,0.00,,---,0.00,VWS V14.00,2013-01-22 21:48:00,
2013-01-22 16:53:00,60.6,39.2,30.24,NW,323,0.0,3.0,45,0.00,,---,0.00,VWS V14.00,2013-01-22 21:53:00,
2013-01-22 16:58:00,60.5,39.1,30.23,NNW,343,0.0,3.0,45,0.00,,---,0.00,VWS V14.00,2013-01-22 21:58:00,
2013-01-22 17:00:00,56.3,39.9,30.25,NNW,346,0.0,0.0,54,0.00,,---,0.00,VWS V14.00,2013-01-22 22:00:00,
2013-01-22 17:04:00,60.4,39.0,30.24,NNW,343,0.0,0.0,45,0.00,,---,0.00,VWS V14.00,2013-01-22 22:04:00,
2013-01-22 17:09:00,60.1,38.7,30.24,NNW,346,0.0,2.0,45,0.00,,---,0.00,VWS V14.00,2013-01-22 22:09:00,
2013-01-22 17:14:00,59.8,39.0,30.24,NNW,346,0.0,2.0,46,0.00,,---,0.00,VWS V14.00,2013-01-22 22:14:00,
2013-01-22 17:20:00,59.5,39.3,30.24,NNW,346,0.0,2.0,47,0.00,,---,0.00,VWS V14.00,2013-01-22 22:20:00,
2013-01-22 17:25:00,59.1,39.5,30.24,NNW,346,0.0,2.0,48,0.00,,---,0.00,VWS V14.00,2013-01-22 22:25:00,
2013-01-22 17:30:00,59.0,39.9,30.24,NNW,346,0.0,2.0,49,0.00,,---,0.00,VWS V14.00,2013-01-22 22:30:00,
2013-01-22 17:35:00,58.6,40.0,30.24,NNW,346,0.0,0.0,50,0.00,,---,0.00,VWS V14.00,2013-01-22 22:35:00,
2013-01-22 17:40:00,58.2,40.2,30.24,NNW,346,0.0,0.0,51,0.00,,---,0.00,VWS V14.00,2013-01-22 22:40:00,
2013-01-22 17:45:00,57.8,39.8,30.25,NNW,346,0.0,0.0,51,0.00,,---,0.00,VWS V14.00,2013-01-22 22:45:00,
2013-01-22 17:51:00,57.3,39.8,30.25,NNW,346,0.0,0.0,52,0.00,,---,0.00,VWS V14.00,2013-01-22 22:51:00,
2013-01-22 17:56:00,56.8,40.3,30.25,NNW,346,0.0,0.0,54,0.00,,---,0.00,VWS V14.00,2013-01-22 22:56:00,
2013-01-22 18:00:00,51.8,40.0,30.25,NNW,346,0.0,0.0,64,0.00,,---,0.00,VWS V14.00,2013-01-22 23:00:00,
2013-01-22 18:01:00,56.3,39.9,30.25,NNW,346,0.0,0.0,54,0.00,,---,0.00,VWS V14.00,2013-01-22 23:01:00,
2013-01-22 18:06:00,55.9,39.5,30.25,NNW,346,0.0,0.0,54,0.00,,---,0.00,VWS V14.00,2013-01-22 23:06:00,
2013-01-22 18:11:00,55.5,40.1,30.25,NNW,346,0.0,0.0,56,0.00,,---,0.00,VWS V14.00,2013-01-22 23:11:00,
2013-01-22 18:16:00,55.0,39.6,30.25,NNW,346,0.0,0.0,56,0.00,,---,0.00,VWS V14.00,2013-01-22 23:16:00,
2013-01-22 18:22:00,54.4,39.5,30.25,NNW,346,0.0,0.0,57,0.00,,---,0.00,VWS V14.00,2013-01-22 23:22:00,
2013-01-22 18:27:00,54.0,39.1,30.25,NNW,346,0.0,0.0,57,0.00,,---,0.00,VWS V14.00,2013-01-22 23:27:00,
2013-01-22 18:30:00,51.0,40.1,30.25,NNW,346,0.0,0.0,66,0.00,,---,0.00,VWS V14.00,2013-01-22 23:30:00,
2013-01-22 18:33:00,53.5,39.1,30.25,NNW,346,0.0,0.0,58,0.00,,---,0.00,VWS V14.00,2013-01-22 23:33:00,
2013-01-22 18:38:00,53.1,39.6,30.25,NNW,346,0.0,0.0,60,0.00,,---,0.00,VWS V14.00,2013-01-22 23:38:00,
2013-01-22 18:43:00,52.8,39.3,30.25,NNW,346,0.0,0.0,60,0.00,,---,0.00,VWS V14.00,2013-01-22 23:43:00,
2013-01-22 18:48:00,52.5,39.5,30.25,NNW,346,0.0,0.0,61,0.00,,---,0.00,VWS V14.00,2013-01-22 23:48:00,
2013-01-22 18:53:00,52.2,39.2,30.25,NNW,346,0.0,0.0,61,0.00,,---,0.00,VWS V14.00,2013-01-22 23:53:00,
2013-01-22 18:58:00,51.9,39.3,30.25,NNW,346,0.0,0.0,62,0.00,,---,0.00,VWS V14.00,2013-01-22 23:58:00,
2013-01-22 19:00:00,50.0,39.9,30.26,NNW,346,0.0,0.0,68,0.00,,---,0.00,VWS V14.00,2013-01-23 00:00:00,
2013-01-22 19:03:00,51.7,39.9,30.25,NNW,346,0.0,0.0,64,0.00,,---,0.00,VWS V14.00,2013-01-23 00:03:00,
2013-01-22 19:09:00,51.6,40.2,30.25,NNW,346,0.0,0.0,65,0.00,,---,0.00,VWS V14.00,2013-01-23 00:09:00,
2013-01-22 19:14:00,51.4,40.0,30.25,NNW,346,0.0,0.0,65,0.00,,---,0.00,VWS V14.00,2013-01-23 00:14:00,
2013-01-22 19:19:00,51.3,40.3,30.25,NNW,346,0.0,0.0,66,0.00,,---,0.00,VWS V14.00,2013-01-23 00:19:00,
2013-01-22 19:24:00,51.2,40.6,30.25,NNW,346,0.0,0.0,67,0.00,,---,0.00,VWS V14.00,2013-01-23 00:24:00,
2013-01-22 19:30:00,51.0,40.1,30.26,NNW,346,0.0,0.0,66,0.00,,---,0.00,VWS V14.00,2013-01-23 00:30:00,
2013-01-22 19:35:00,50.8,39.9,30.26,NNW,346,0.0,0.0,66,0.00,,---,0.00,VWS V14.00,2013-01-23 00:35:00,
2013-01-22 19:40:00,50.6,39.7,30.26,NNW,346,0.0,0.0,66,0.00,,---,0.00,VWS V14.00,2013-01-23 00:40:00,
2013-01-22 19:45:00,50.4,39.9,30.26,NNW,346,0.0,0.0,67,0.00,,---,0.00,VWS V14.00,2013-01-23 00:45:00,
2013-01-22 19:50:00,50.3,40.2,30.26,NNW,345,0.0,0.0,68,0.00,,---,0.00,VWS V14.00,2013-01-23 00:50:00,
2013-01-22 19:56:00,50.1,40.0,30.26,NNW,346,0.0,0.0,68,0.00,,---,0.00,VWS V14.00,2013-01-23 00:56:00,
2013-01-22 20:00:00,48.9,40.6,30.27,NNW,346,0.0,0.0,73,0.00,,---,0.00,VWS V14.00,2013-01-23 01:00:00,
2013-01-22 20:01:00,50.0,39.9,30.26,NNW,346,0.0,0.0,68,0.00,,---,0.00,VWS V14.00,2013-01-23 01:01:00,
2013-01-22 20:06:00,49.9,40.2,30.26,NNW,346,0.0,0.0,69,0.00,,---,0.00,VWS V14.00,2013-01-23 01:06:00,
2013-01-22 20:11:00,49.8,40.4,30.26,NNW,346,0.0,0.0,70,0.00,,---,0.00,VWS V14.00,2013-01-23 01:11:00,
2013-01-22 20:17:00,49.8,40.8,30.26,NNW,346,0.0,0.0,71,0.00,,---,0.00,VWS V14.00,2013-01-23 01:17:00,
2013-01-22 20:22:00,49.7,40.7,30.26,NNW,346,0.0,0.0,71,0.00,,---,0.00,VWS V14.00,2013-01-23 01:22:00,
2013-01-22 20:27:00,49.6,41.0,30.26,NNW,346,0.0,0.0,72,0.00,,---,0.00,VWS V14.00,2013-01-23 01:27:00,
2013-01-22 20:30:00,48.0,40.5,30.28,NNW,346,0.0,0.0,75,0.00,,---,0.00,VWS V14.00,2013-01-23 01:30:00,
2013-01-22 20:32:00,49.6,41.3,30.27,NNW,346,0.0,0.0,73,0.00,,---,0.00,VWS V14.00,2013-01-23 01:32:00,
2013-01-22 20:38:00,49.5,41.2,30.27,NNW,346,0.0,0.0,73,0.00,,---,0.00,VWS V14.00,2013-01-23 01:38:00,
2013-01-22 20:43:00,49.4,41.1,30.27,NNW,346,0.0,0.0,73,0.00,,---,0.00,VWS V14.00,2013-01-23 01:43:00,
2013-01-22 20:48:00,49.2,40.9,30.27,NNW,346,0.0,0.0,73,0.00,,---,0.00,VWS V14.00,2013-01-23 01:48:00,
2013-01-22 20:53:00,49.1,40.5,30.27,NNW,346,0.0,0.0,72,0.00,,---,0.00,VWS V14.00,2013-01-23 01:53:00,
2013-01-22 20:59:00,49.0,40.7,30.27,NNW,346,0.0,0.0,73,0.00,,---,0.00,VWS V14.00,2013-01-23 01:59:00,
2013-01-22 21:00:00,47.4,40.6,30.28,NNW,346,0.0,0.0,77,0.00,,---,0.00,VWS V14.00,2013-01-23 02:00:00,
2013-01-22 21:04:00,48.8,40.5,30.27,NNW,346,0.0,0.0,73,0.00,,---,0.00,VWS V14.00,2013-01-23 02:04:00,
2013-01-22 21:09:00,48.7,40.5,30.27,NNW,346,0.0,0.0,73,0.00,,---,0.00,VWS V14.00,2013-01-23 02:09:00,
2013-01-22 21:14:00,48.6,40.7,30.27,NNW,346,0.0,0.0,74,0.00,,---,0.00,VWS V14.00,2013-01-23 02:14:00,
2013-01-22 21:19:00,48.4,40.5,30.27,NNW,346,0.0,0.0,74,0.00,,---,0.00,VWS V14.00,2013-01-23 02:19:00,
2013-01-22 21:24:00,48.2,40.7,30.27,NNW,346,0.0,0.0,75,0.00,,---,0.00,VWS V14.00,2013-01-23 02:24:00,
2013-01-22 21:30:00,48.0,40.5,30.28,NNW,346,0.0,0.0,75,0.00,,---,0.00,VWS V14.00,2013-01-23 02:30:00,
2013-01-22 21:35:00,47.9,40.7,30.28,NNW,346,0.0,0.0,76,0.00,,---,0.00,VWS V14.00,2013-01-23 02:35:00,
2013-01-22 21:40:00,47.8,40.6,30.28,NNW,346,0.0,0.0,76,0.00,,---,0.00,VWS V14.00,2013-01-23 02:40:00,
2013-01-22 21:46:00,47.7,40.5,30.28,NNW,346,0.0,0.0,76,0.00,,---,0.00,VWS V14.00,2013-01-23 02:46:00,
2013-01-22 21:51:00,47.5,40.7,30.28,NNW,346,0.0,0.0,77,0.00,,---,0.00,VWS V14.00,2013-01-23 02:51:00,
2013-01-22 21:57:00,47.5,40.7,30.28,NNW,346,0.0,0.0,77,0.00,,---,0.00,VWS V14.00,2013-01-23 02:57:00,
2013-01-22 22:00:00,46.0,40.2,30.28,NNW,346,0.0,0.0,80,0.00,,---,0.00,VWS V14.00,2013-01-23 03:00:00,
2013-01-22 22:02:00,47.3,40.5,30.28,NNW,346,0.0,0.0,77,0.00,,---,0.00,VWS V14.00,2013-01-23 03:02:00,
2013-01-22 22:07:00,47.2,40.4,30.28,NNW,346,0.0,0.0,77,0.00,,---,0.00,VWS V14.00,2013-01-23 03:07:00,
2013-01-22 22:12:00,47.0,40.5,30.28,NNW,346,0.0,0.0,78,0.00,,---,0.00,VWS V14.00,2013-01-23 03:12:00,
2013-01-22 22:18:00,46.8,40.3,30.28,NNW,346,0.0,0.0,78,0.00,,---,0.00,VWS V14.00,2013-01-23 03:18:00,
2013-01-22 22:23:00,46.7,40.5,30.28,NNW,346,0.0,0.0,79,0.00,,---,0.00,VWS V14.00,2013-01-23 03:23:00,
2013-01-22 22:28:00,46.6,40.5,30.29,NNW,346,0.0,0.0,79,0.00,,---,0.00,VWS V14.00,2013-01-23 03:28:00,
2013-01-22 22:30:00,45.3,40.1,30.28,NNW,346,0.0,0.0,82,0.00,,---,0.00,VWS V14.00,2013-01-23 03:30:00,
2013-01-22 22:33:00,46.5,40.3,30.29,NNW,346,0.0,0.0,79,0.00,,---,0.00,VWS V14.00,2013-01-23 03:33:00,
2013-01-22 22:38:00,46.4,40.2,30.29,NNW,346,0.0,0.0,79,0.00,,---,0.00,VWS V14.00,2013-01-23 03:38:00,
2013-01-22 22:44:00,46.3,40.2,30.29,NNW,346,0.0,0.0,79,0.00,,---,0.00,VWS V14.00,2013-01-23 03:44:00,
2013-01-22 22:49:00,46.2,40.4,30.28,NNW,346,0.0,0.0,80,0.00,,---,0.00,VWS V14.00,2013-01-23 03:49:00,
2013-01-22 22:54:00,46.1,40.3,30.28,NNW,346,0.0,0.0,80,0.00,,---,0.00,VWS V14.00,2013-01-23 03:54:00,
2013-01-22 22:59:00,46.0,40.2,30.28,NNW,346,0.0,0.0,80,0.00,,---,0.00,VWS V14.00,2013-01-23 03:59:00,
2013-01-22 23:00:00,45.0,40.2,30.29,NNW,346,0.0,0.0,83,0.00,,---,0.00,VWS V14.00,2013-01-23 04:00:00,
2013-01-22 23:04:00,45.9,40.1,30.28,NNW,346,0.0,0.0,80,0.00,,---,0.00,VWS V14.00,2013-01-23 04:04:00,
2013-01-22 23:10:00,45.8,40.3,30.28,NNW,346,0.0,0.0,81,0.00,,---,0.00,VWS V14.00,2013-01-23 04:10:00,
2013-01-22 23:15:00,45.7,40.2,30.28,NNW,346,0.0,0.0,81,0.00,,---,0.00,VWS V14.00,2013-01-23 04:15:00,
2013-01-22 23:20:00,45.6,40.4,30.28,NNW,346,0.0,0.0,82,0.00,,---,0.00,VWS V14.00,2013-01-23 04:20:00,
2013-01-22 23:25:00,45.4,40.2,30.28,NNW,346,0.0,0.0,82,0.00,,---,0.00,VWS V14.00,2013-01-23 04:25:00,
2013-01-22 23:30:00,44.7,40.2,30.29,NNW,346,0.0,0.0,84,0.00,,---,0.00,VWS V14.00,2013-01-23 04:30:00,
2013-01-22 23:31:00,45.3,40.1,30.28,NNW,346,0.0,0.0,82,0.00,,---,0.00,VWS V14.00,2013-01-23 04:31:00,
2013-01-22 23:37:00,45.2,40.0,30.28,NNW,346,0.0,0.0,82,0.00,,---,0.00,VWS V14.00,2013-01-23 04:37:00,
2013-01-22 23:42:00,45.1,39.9,30.28,NNW,346,0.0,0.0,82,0.00,,---,0.00,VWS V14.00,2013-01-23 04:42:00,
2013-01-22 23:47:00,45.1,39.9,30.28,NNW,346,0.0,0.0,82,0.00,,---,0.00,VWS V14.00,2013-01-23 04:47:00,
2013-01-22 23:52:00,45.0,40.2,30.28,NNW,346,0.0,0.0,83,0.00,,---,0.00,VWS V14.00,2013-01-23 04:52:00,
2013-01-22 23:57:00,45.0,40.2,30.28,NNW,346,0.0,0.0,83,0.00,,---,0.00,VWS V14.00,2013-01-23 04:57:00,